軌道要素
Epoch 2016 June 21.0 TT = JDT 2457560.5
T 2016 June 18.95620 TT MPCW
q 2.2963240 (2000.0) P Q
z +0.0114889 Peri. 270.14010 -0.03526260 -0.31242635
+/-0.0000013 Node 251.78934 +0.40579549 -0.87252388
e 0.9736179 Incl. 87.91870 -0.91328340 -0.37562195
From 326 observations 2015 Oct. 14-2016 Aug. 26, mean residual 0".5.
|